User: anonymous   Login
Location: ?
(35.4064°N, 139.3593°E)
Time: 18:53:59
(UTC+00:00)
Language:

ALOS - Orbit

View from above orbital plane
View from above orbital plane
View from above satellite
View from above satellite

Ground track
Ground track

The orbit data is extracted from the following two-line orbital elements,

1 28931U 06002A   24172.16055087  .00001628  00000-0  30668-3 0  9992
2 28931  98.0370 125.1551 0002397 104.0111 256.1360 14.65844886981781
Epoch (UTC): 20 June 2024 03:51:11
Eccentricity: 0.0002397
inclination: 98.0370°
perigee height: 672 km
apogee height: 676 km
right ascension of ascending node: 125.1551°
argument of perigee: 104.0111°
revolutions per day: 14.65844886
mean anomaly at epoch: 256.1360°
orbit number at epoch: 98178

The dashed part of the orbit path shows where the satellite is in the earth's shadow,  

DLR